Time,TemperatureF,DewpointF,PressureIn,WindDirection,WindDirectionDegrees,WindSpeedMPH,WindSpeedGustMPH,Humidity,HourlyPrecipIn,Conditions,Clouds,dailyrainin,SoftwareType,DateUTC
2013-10-29 00:09:00,58.9,57.2,30.22,West,275,0.0,3.0,94,0.00,,,0.00,Weather View 32 v70,2013-10-29 04:09:00,
2013-10-29 00:20:00,58.7,57.0,30.22,West,275,0.0,3.0,94,0.00,,,0.00,Weather View 32 v70,2013-10-29 04:20:00,
2013-10-29 00:30:00,58.7,57.0,30.22,West,275,1.0,3.0,94,0.00,,,0.00,Weather View 32 v70,2013-10-29 04:30:00,
2013-10-29 00:40:00,58.4,56.7,30.21,West,275,0.0,3.0,94,0.00,,,0.00,Weather View 32 v70,2013-10-29 04:40:00,
2013-10-29 00:50:00,58.6,57.2,30.20,West,275,0.0,3.0,95,0.00,,,0.00,Weather View 32 v70,2013-10-29 04:50:00,
2013-10-29 00:59:00,58.4,56.7,30.20,West,275,0.0,3.0,94,0.00,,,0.00,Weather View 32 v70,2013-10-29 04:59:00,
2013-10-29 01:10:00,58.3,56.6,30.20,West,275,1.0,3.0,94,0.00,,,0.00,Weather View 32 v70,2013-10-29 05:10:00,
2013-10-29 01:20:00,58.0,56.3,30.20,West,275,1.0,3.0,94,0.00,,,0.00,Weather View 32 v70,2013-10-29 05:20:00,
2013-10-29 01:30:00,57.8,56.1,30.20,West,275,1.0,3.0,94,0.00,,,0.00,Weather View 32 v70,2013-10-29 05:30:00,
2013-10-29 01:40:00,57.5,55.8,30.19,West,275,2.0,3.0,94,0.00,,,0.00,Weather View 32 v70,2013-10-29 05:40:00,
2013-10-29 01:50:00,57.6,56.2,30.19,West,276,3.0,3.0,95,0.00,,,0.00,Weather View 32 v70,2013-10-29 05:50:00,
2013-10-29 02:00:00,57.5,56.1,30.19,West,281,2.0,3.0,95,0.00,,,0.00,Weather View 32 v70,2013-10-29 06:00:00,
2013-10-29 02:10:00,57.8,56.4,30.19,West,281,2.0,3.0,95,0.00,,,0.00,Weather View 32 v70,2013-10-29 06:10:00,
2013-10-29 02:20:00,57.5,56.1,30.19,WNW,282,3.0,3.0,95,0.00,,,0.00,Weather View 32 v70,2013-10-29 06:20:00,
2013-10-29 02:25:00,57.5,56.1,30.19,WNW,282,3.0,3.0,95,0.00,,,0.00,Weather View 32 v70,2013-10-29 06:25:00,
2013-10-29 02:30:00,57.6,56.2,30.19,West,280,3.0,3.0,95,0.00,,,0.00,Weather View 32 v70,2013-10-29 06:30:00,
2013-10-29 02:40:00,57.6,56.2,30.19,West,280,2.0,3.0,95,0.00,,,0.00,Weather View 32 v70,2013-10-29 06:40:00,
2013-10-29 02:50:00,57.4,55.7,30.19,West,280,2.0,4.0,94,0.00,,,0.00,Weather View 32 v70,2013-10-29 06:50:00,
2013-10-29 03:00:00,57.3,55.9,30.19,West,279,3.0,4.0,95,0.00,,,0.00,Weather View 32 v70,2013-10-29 07:00:00,
2013-10-29 03:10:00,57.5,56.1,30.19,West,278,2.0,4.0,95,0.00,,,0.00,Weather View 32 v70,2013-10-29 07:10:00,
2013-10-29 03:20:00,57.5,56.1,30.19,West,279,3.0,4.0,95,0.00,,,0.00,Weather View 32 v70,2013-10-29 07:20:00,
2013-10-29 03:25:00,57.5,56.1,30.19,West,279,3.0,4.0,95,0.00,,,0.00,Weather View 32 v70,2013-10-29 07:25:00,
2013-10-29 03:30:00,57.3,55.9,30.19,West,278,2.0,4.0,95,0.00,,,0.00,Weather View 32 v70,2013-10-29 07:30:00,
2013-10-29 03:40:00,57.5,56.1,30.19,West,278,1.0,4.0,95,0.00,,,0.00,Weather View 32 v70,2013-10-29 07:40:00,
2013-10-29 03:50:00,57.6,56.2,30.19,West,278,1.0,4.0,95,0.00,,,0.00,Weather View 32 v70,2013-10-29 07:50:00,
2013-10-29 04:00:00,57.6,56.2,30.19,West,278,1.0,4.0,95,0.00,,,0.00,Weather View 32 v70,2013-10-29 08:00:00,
2013-10-29 04:10:00,57.5,56.1,30.19,West,278,2.0,3.0,95,0.00,,,0.00,Weather View 32 v70,2013-10-29 08:10:00,
2013-10-29 04:21:00,57.3,55.9,30.19,West,278,1.0,3.0,95,0.00,,,0.00,Weather View 32 v70,2013-10-29 08:21:00,
2013-10-29 04:26:00,57.3,55.9,30.19,West,278,1.0,3.0,95,0.00,,,0.00,Weather View 32 v70,2013-10-29 08:26:00,
2013-10-29 04:30:00,56.9,55.5,30.19,West,278,1.0,3.0,95,0.00,,,0.00,Weather View 32 v70,2013-10-29 08:30:00,
2013-10-29 04:40:00,57.0,55.6,30.19,West,278,0.0,3.0,95,0.00,,,0.00,Weather View 32 v70,2013-10-29 08:40:00,
2013-10-29 04:50:00,57.1,55.7,30.19,West,278,0.0,3.0,95,0.00,,,0.00,Weather View 32 v70,2013-10-29 08:50:00,
2013-10-29 05:00:00,56.9,55.5,30.19,West,278,0.0,3.0,95,0.00,,,0.00,Weather View 32 v70,2013-10-29 09:00:00,
2013-10-29 05:10:00,56.8,55.4,30.20,West,278,1.0,3.0,95,0.00,,,0.00,Weather View 32 v70,2013-10-29 09:10:00,
2013-10-29 05:19:00,56.5,55.1,30.20,West,278,0.0,3.0,95,0.00,,,0.00,Weather View 32 v70,2013-10-29 09:19:00,
2013-10-29 05:27:00,56.5,55.1,30.20,West,278,0.0,3.0,95,0.00,,,0.00,Weather View 32 v70,2013-10-29 09:27:00,
2013-10-29 05:30:00,56.3,54.9,30.20,West,278,2.0,3.0,95,0.00,,,0.00,Weather View 32 v70,2013-10-29 09:30:00,
2013-10-29 05:40:00,56.5,55.1,30.21,West,278,1.0,3.0,95,0.00,,,0.00,Weather View 32 v70,2013-10-29 09:40:00,
2013-10-29 05:50:00,56.5,55.1,30.21,West,278,0.0,3.0,95,0.00,,,0.00,Weather View 32 v70,2013-10-29 09:50:00,
2013-10-29 05:59:00,56.5,55.1,30.21,West,278,2.0,3.0,95,0.00,,,0.00,Weather View 32 v70,2013-10-29 09:59:00,
2013-10-29 06:09:00,56.6,55.2,30.21,West,278,0.0,3.0,95,0.00,,,0.00,Weather View 32 v70,2013-10-29 10:09:00,
2013-10-29 06:19:00,56.5,55.1,30.21,West,278,0.0,3.0,95,0.00,,,0.00,Weather View 32 v70,2013-10-29 10:19:00,
2013-10-29 06:27:00,56.5,55.1,30.21,West,278,0.0,3.0,95,0.00,,,0.00,Weather View 32 v70,2013-10-29 10:27:00,
2013-10-29 06:29:00,56.8,55.4,30.21,West,278,2.0,3.0,95,0.00,,,0.00,Weather View 32 v70,2013-10-29 10:29:00,
2013-10-29 06:39:00,56.9,55.5,30.22,West,278,1.0,3.0,95,0.00,,,0.00,Weather View 32 v70,2013-10-29 10:39:00,
2013-10-29 06:49:00,56.7,55.3,30.22,West,278,1.0,3.0,95,0.00,,,0.00,Weather View 32 v70,2013-10-29 10:49:00,
2013-10-29 06:59:00,56.3,54.9,30.22,West,278,0.0,3.0,95,0.00,,,0.00,Weather View 32 v70,2013-10-29 10:59:00,
2013-10-29 07:09:00,56.5,55.1,30.22,West,277,1.0,3.0,95,0.00,,,0.00,Weather View 32 v70,2013-10-29 11:09:00,
2013-10-29 07:19:00,56.7,55.6,30.23,West,277,0.0,3.0,96,0.00,,,0.00,Weather View 32 v70,2013-10-29 11:19:00,
2013-10-29 07:28:00,56.7,55.6,30.23,West,277,0.0,3.0,96,0.00,,,0.00,Weather View 32 v70,2013-10-29 11:28:00,
2013-10-29 07:29:00,56.7,55.3,30.23,West,277,0.0,3.0,95,0.00,,,0.00,Weather View 32 v70,2013-10-29 11:29:00,
2013-10-29 07:39:00,56.3,54.9,30.24,West,277,1.0,3.0,95,0.00,,,0.00,Weather View 32 v70,2013-10-29 11:39:00,
2013-10-29 07:49:00,56.1,54.7,30.24,West,277,1.0,3.0,95,0.00,,,0.00,Weather View 32 v70,2013-10-29 11:49:00,
2013-10-29 07:59:00,55.9,54.5,30.24,West,277,0.0,3.0,95,0.00,,,0.00,Weather View 32 v70,2013-10-29 11:59:00,
2013-10-29 08:09:00,56.5,55.4,30.24,West,277,1.0,2.0,96,0.00,,,0.00,Weather View 32 v70,2013-10-29 12:09:00,
2013-10-29 08:19:00,57.3,56.2,30.24,West,277,0.0,2.0,96,0.00,,,0.00,Weather View 32 v70,2013-10-29 12:19:00,
2013-10-29 08:28:00,57.3,56.2,30.24,West,277,0.0,2.0,96,0.00,,,0.00,Weather View 32 v70,2013-10-29 12:28:00,
2013-10-29 08:39:00,59.5,58.4,30.24,West,273,0.0,3.0,96,0.00,,,0.00,Weather View 32 v70,2013-10-29 12:39:00,
2013-10-29 08:49:00,61.0,59.8,30.25,West,273,0.0,3.0,96,0.00,,,0.00,Weather View 32 v70,2013-10-29 12:49:00,
2013-10-29 08:59:00,62.4,60.9,30.25,West,273,1.0,3.0,95,0.00,,,0.00,Weather View 32 v70,2013-10-29 12:59:00,
2013-10-29 09:09:00,64.0,62.2,30.24,NW,325,1.0,3.0,94,0.00,,,0.00,Weather View 32 v70,2013-10-29 13:09:00,
2013-10-29 09:19:00,65.6,63.2,30.25,NNE,26,2.0,4.0,92,0.00,,,0.00,Weather View 32 v70,2013-10-29 13:19:00,
2013-10-29 09:28:00,65.6,63.2,30.25,NNE,26,2.0,4.0,92,0.00,,,0.00,Weather View 32 v70,2013-10-29 13:28:00,
2013-10-29 09:39:00,67.8,63.8,30.25,North,10,4.0,7.0,87,0.00,,,0.00,Weather View 32 v70,2013-10-29 13:39:00,
2013-10-29 09:49:00,68.7,64.3,30.25,North,355,6.0,7.0,86,0.00,,,0.00,Weather View 32 v70,2013-10-29 13:49:00,
2013-10-29 09:59:00,69.4,64.7,30.26,NE,34,5.0,9.0,85,0.00,,,0.00,Weather View 32 v70,2013-10-29 13:59:00,
2013-10-29 10:09:00,70.3,64.9,30.26,North,11,1.0,9.0,83,0.00,,,0.00,Weather View 32 v70,2013-10-29 14:09:00,
2013-10-29 10:19:00,71.2,65.8,30.26,North,355,5.0,9.0,83,0.00,,,0.00,Weather View 32 v70,2013-10-29 14:19:00,
2013-10-29 10:29:00,71.2,65.8,30.26,North,355,5.0,9.0,83,0.00,,,0.00,Weather View 32 v70,2013-10-29 14:29:00,
2013-10-29 10:39:00,72.6,66.1,30.26,NNW,343,6.0,11.0,80,0.00,,,0.00,Weather View 32 v70,2013-10-29 14:39:00,
2013-10-29 10:49:00,73.4,66.1,30.26,NNE,30,4.0,11.0,78,0.00,,,0.00,Weather View 32 v70,2013-10-29 14:49:00,
2013-10-29 10:59:00,73.8,65.0,30.26,NNE,28,11.0,12.0,74,0.00,,,0.00,Weather View 32 v70,2013-10-29 14:59:00,
2013-10-29 11:09:00,74.5,65.6,30.26,NNE,24,3.0,13.0,74,0.00,,,0.00,Weather View 32 v70,2013-10-29 15:09:00,
2013-10-29 11:19:00,74.9,64.8,30.27,NNW,334,5.0,14.0,71,0.00,,,0.00,Weather View 32 v70,2013-10-29 15:19:00,
2013-10-29 11:30:00,74.9,64.4,30.26,NNE,30,3.0,14.0,70,0.00,,,0.00,Weather View 32 v70,2013-10-29 15:30:00,
2013-10-29 11:39:00,75.3,64.4,30.26,NE,42,5.0,14.0,69,0.00,,,0.00,Weather View 32 v70,2013-10-29 15:39:00,
2013-10-29 11:49:00,75.8,64.9,30.26,NNE,29,4.0,14.0,69,0.00,,,0.00,Weather View 32 v70,2013-10-29 15:49:00,
2013-10-29 11:59:00,76.4,64.6,30.26,NE,47,6.0,14.0,67,0.00,,,0.00,Weather View 32 v70,2013-10-29 15:59:00,
2013-10-29 12:09:00,76.2,64.0,30.26,North,5,6.0,16.0,66,0.00,,,0.00,Weather View 32 v70,2013-10-29 16:09:00,
2013-10-29 12:19:00,76.7,65.3,30.26,NNE,28,2.0,16.0,68,0.00,,,0.00,Weather View 32 v70,2013-10-29 16:19:00,
2013-10-29 12:29:00,77.2,65.3,30.25,NNE,24,9.0,16.0,67,0.00,,,0.00,Weather View 32 v70,2013-10-29 16:29:00,
2013-10-29 12:30:00,77.2,65.3,30.25,NNE,24,9.0,16.0,67,0.00,,,0.00,Weather View 32 v70,2013-10-29 16:30:00,
2013-10-29 12:39:00,77.1,64.8,30.25,North,5,4.0,16.0,66,0.00,,,0.00,Weather View 32 v70,2013-10-29 16:39:00,
2013-10-29 12:49:00,77.5,64.3,30.24,NNE,22,6.0,16.0,64,0.00,,,0.00,Weather View 32 v70,2013-10-29 16:49:00,
2013-10-29 12:59:00,77.7,64.5,30.24,NNW,342,5.0,16.0,64,0.00,,,0.00,Weather View 32 v70,2013-10-29 16:59:00,
2013-10-29 13:09:00,77.7,65.0,30.23,NNE,29,2.0,14.0,65,0.00,,,0.00,Weather View 32 v70,2013-10-29 17:09:00,
2013-10-29 13:19:00,77.4,64.2,30.23,NE,44,2.0,14.0,64,0.00,,,0.00,Weather View 32 v70,2013-10-29 17:19:00,
2013-10-29 13:29:00,77.4,63.8,30.22,NE,55,6.0,14.0,63,0.00,,,0.00,Weather View 32 v70,2013-10-29 17:29:00,
2013-10-29 13:31:00,77.4,63.8,30.22,NE,55,6.0,14.0,63,0.00,,,0.00,Weather View 32 v70,2013-10-29 17:31:00,
2013-10-29 13:40:00,77.5,63.4,30.21,NE,42,2.0,13.0,62,0.00,,,0.00,Weather View 32 v70,2013-10-29 17:40:00,
2013-10-29 13:49:00,77.6,64.4,30.21,NNE,33,8.0,18.0,64,0.00,,,0.00,Weather View 32 v70,2013-10-29 17:49:00,
2013-10-29 13:59:00,77.6,64.9,30.20,NNE,27,2.0,18.0,65,0.00,,,0.00,Weather View 32 v70,2013-10-29 17:59:00,
2013-10-29 14:09:00,77.8,64.1,30.20,NNE,22,11.0,18.0,63,0.00,,,0.00,Weather View 32 v70,2013-10-29 18:09:00,
2013-10-29 14:19:00,78.2,64.1,30.19,NE,38,6.0,18.0,62,0.00,,,0.00,Weather View 32 v70,2013-10-29 18:19:00,
2013-10-29 14:29:00,77.7,64.5,30.19,NNE,14,7.0,18.0,64,0.00,,,0.00,Weather View 32 v70,2013-10-29 18:29:00,
2013-10-29 14:32:00,77.7,64.5,30.19,NNE,14,7.0,18.0,64,0.00,,,0.00,Weather View 32 v70,2013-10-29 18:32:00,
2013-10-29 14:39:00,78.1,64.4,30.19,NNE,26,4.0,18.0,63,0.00,,,0.00,Weather View 32 v70,2013-10-29 18:39:00,
2013-10-29 14:49:00,77.6,64.9,30.19,North,360,3.0,15.0,65,0.00,,,0.00,Weather View 32 v70,2013-10-29 18:49:00,
2013-10-29 14:59:00,77.8,64.1,30.19,NNE,27,8.0,15.0,63,0.00,,,0.00,Weather View 32 v70,2013-10-29 18:59:00,
2013-10-29 15:09:00,77.8,64.1,30.19,NNE,24,7.0,15.0,63,0.00,,,0.00,Weather View 32 v70,2013-10-29 19:09:00,
2013-10-29 15:19:00,77.7,64.5,30.19,NE,44,8.0,15.0,64,0.00,,,0.00,Weather View 32 v70,2013-10-29 19:19:00,
2013-10-29 15:29:00,77.3,63.2,30.19,NE,40,7.0,15.0,62,0.00,,,0.00,Weather View 32 v70,2013-10-29 19:29:00,
2013-10-29 15:32:00,77.3,63.2,30.19,NE,40,7.0,15.0,62,0.00,,,0.00,Weather View 32 v70,2013-10-29 19:32:00,
2013-10-29 15:39:00,77.2,64.5,30.19,NE,45,2.0,13.0,65,0.00,,,0.00,Weather View 32 v70,2013-10-29 19:39:00,
2013-10-29 15:49:00,76.6,64.3,30.19,NNW,347,3.0,13.0,66,0.00,,,0.00,Weather View 32 v70,2013-10-29 19:49:00,
2013-10-29 15:59:00,77.2,64.0,30.19,NNE,29,8.0,13.0,64,0.00,,,0.00,Weather View 32 v70,2013-10-29 19:59:00,
2013-10-29 16:09:00,77.1,65.3,30.19,NE,39,5.0,13.0,67,0.00,,,0.00,Weather View 32 v70,2013-10-29 20:09:00,
2013-10-29 16:19:00,77.2,63.6,30.19,NNE,26,7.0,13.0,63,0.00,,,0.00,Weather View 32 v70,2013-10-29 20:19:00,
2013-10-29 16:29:00,77.1,64.4,30.19,NE,38,9.0,13.0,65,0.00,,,0.00,Weather View 32 v70,2013-10-29 20:29:00,
2013-10-29 16:33:00,77.1,64.4,30.19,NE,38,9.0,13.0,65,0.00,,,0.00,Weather View 32 v70,2013-10-29 20:33:00,
2013-10-29 16:39:00,76.8,63.7,30.19,NE,39,6.0,13.0,64,0.00,,,0.00,Weather View 32 v70,2013-10-29 20:39:00,
2013-10-29 16:49:00,76.4,64.2,30.19,NNE,28,6.0,13.0,66,0.00,,,0.00,Weather View 32 v70,2013-10-29 20:49:00,
2013-10-29 16:59:00,76.4,64.2,30.20,NE,38,8.0,12.0,66,0.00,,,0.00,Weather View 32 v70,2013-10-29 20:59:00,
2013-10-29 17:09:00,76.3,63.6,30.20,NNE,26,5.0,12.0,65,0.00,,,0.00,Weather View 32 v70,2013-10-29 21:09:00,
2013-10-29 17:19:00,76.1,64.7,30.20,NE,44,8.0,11.0,68,0.00,,,0.00,Weather View 32 v70,2013-10-29 21:19:00,
2013-10-29 17:29:00,75.6,63.8,30.20,NE,49,7.0,11.0,67,0.00,,,0.00,Weather View 32 v70,2013-10-29 21:29:00,
2013-10-29 17:33:00,75.6,63.8,30.20,NE,49,7.0,11.0,67,0.00,,,0.00,Weather View 32 v70,2013-10-29 21:33:00,
2013-10-29 17:39:00,75.4,64.5,30.19,NNE,26,4.0,11.0,69,0.00,,,0.00,Weather View 32 v70,2013-10-29 21:39:00,
2013-10-29 17:49:00,74.9,64.4,30.20,NE,42,4.0,11.0,70,0.00,,,0.00,Weather View 32 v70,2013-10-29 21:49:00,
2013-10-29 17:59:00,74.6,64.5,30.20,NE,39,4.0,12.0,71,0.00,,,0.00,Weather View 32 v70,2013-10-29 21:59:00,
2013-10-29 18:09:00,74.2,64.2,30.20,NE,34,5.0,12.0,71,0.00,,,0.00,Weather View 32 v70,2013-10-29 22:09:00,
2013-10-29 18:19:00,73.8,64.2,30.20,NE,41,2.0,12.0,72,0.00,,,0.00,Weather View 32 v70,2013-10-29 22:19:00,
2013-10-29 18:29:00,73.4,64.6,30.20,NNE,22,0.0,12.0,74,0.00,,,0.00,Weather View 32 v70,2013-10-29 22:29:00,
2013-10-29 18:34:00,73.4,64.6,30.20,NNE,22,0.0,12.0,74,0.00,,,0.00,Weather View 32 v70,2013-10-29 22:34:00,
2013-10-29 18:39:00,72.9,64.5,30.20,North,9,3.0,12.0,75,0.00,,,0.00,Weather View 32 v70,2013-10-29 22:39:00,
2013-10-29 18:49:00,72.4,64.4,30.20,NE,46,3.0,12.0,76,0.00,,,0.00,Weather View 32 v70,2013-10-29 22:49:00,
2013-10-29 18:59:00,71.9,63.9,30.21,NNE,12,3.0,8.0,76,0.00,,,0.00,Weather View 32 v70,2013-10-29 22:59:00,
2013-10-29 19:09:00,71.4,63.8,30.21,NNE,15,1.0,7.0,77,0.00,,,0.00,Weather View 32 v70,2013-10-29 23:09:00,
2013-10-29 19:19:00,70.9,63.7,30.21,NNE,22,1.0,5.0,78,0.00,,,0.00,Weather View 32 v70,2013-10-29 23:19:00,
2013-10-29 19:29:00,70.3,63.5,30.21,North,360,0.0,5.0,79,0.00,,,0.00,Weather View 32 v70,2013-10-29 23:29:00,
2013-10-29 19:34:00,70.3,63.5,30.21,North,360,0.0,5.0,79,0.00,,,0.00,Weather View 32 v70,2013-10-29 23:34:00,
2013-10-29 19:39:00,69.3,63.2,30.22,North,360,0.0,5.0,81,0.00,,,0.00,Weather View 32 v70,2013-10-29 23:39:00,
2013-10-29 19:49:00,68.7,63.0,30.22,North,360,0.0,5.0,82,0.00,,,0.00,Weather View 32 v70,2013-10-29 23:49:00,
2013-10-29 19:59:00,68.0,62.6,30.23,NNE,15,1.0,5.0,83,0.00,,,0.00,Weather View 32 v70,2013-10-29 23:59:00,
2013-10-29 20:09:00,67.5,62.5,30.23,North,355,0.0,4.0,84,0.00,,,0.00,Weather View 32 v70,2013-10-30 00:09:00,
2013-10-29 20:19:00,67.0,62.3,30.23,NNW,346,0.0,4.0,85,0.00,,,0.00,Weather View 32 v70,2013-10-30 00:19:00,
2013-10-29 20:29:00,66.7,62.0,30.23,NNW,338,1.0,3.0,85,0.00,,,0.00,Weather View 32 v70,2013-10-30 00:29:00,
2013-10-29 20:35:00,66.7,62.0,30.23,NNW,338,1.0,3.0,85,0.00,,,0.00,Weather View 32 v70,2013-10-30 00:35:00,
2013-10-29 20:39:00,66.4,62.1,30.23,NNW,338,0.0,3.0,86,0.00,,,0.00,Weather View 32 v70,2013-10-30 00:39:00,
2013-10-29 20:49:00,65.9,61.6,30.23,NW,325,1.0,3.0,86,0.00,,,0.00,Weather View 32 v70,2013-10-30 00:49:00,
2013-10-29 20:59:00,65.6,61.6,30.24,NW,325,0.0,3.0,87,0.00,,,0.00,Weather View 32 v70,2013-10-30 00:59:00,
2013-10-29 21:09:00,65.2,61.2,30.24,NW,325,0.0,2.0,87,0.00,,,0.00,Weather View 32 v70,2013-10-30 01:09:00,
2013-10-29 21:19:00,64.9,61.2,30.24,NW,325,0.0,2.0,88,0.00,,,0.00,Weather View 32 v70,2013-10-30 01:19:00,
2013-10-29 21:29:00,64.6,61.0,30.24,NW,325,0.0,2.0,88,0.00,,,0.00,Weather View 32 v70,2013-10-30 01:29:00,
2013-10-29 21:36:00,64.6,61.0,30.24,NW,325,0.0,2.0,88,0.00,,,0.00,Weather View 32 v70,2013-10-30 01:36:00,
2013-10-29 21:39:00,64.3,61.0,30.24,NW,325,1.0,2.0,89,0.00,,,0.00,Weather View 32 v70,2013-10-30 01:39:00,
2013-10-29 21:49:00,63.9,60.6,30.24,NW,323,0.0,2.0,89,0.00,,,0.00,Weather View 32 v70,2013-10-30 01:49:00,
2013-10-29 21:59:00,63.7,60.7,30.25,NW,323,0.0,2.0,90,0.00,,,0.00,Weather View 32 v70,2013-10-30 01:59:00,
2013-10-29 22:09:00,63.4,60.4,30.25,NW,323,0.0,2.0,90,0.00,,,0.00,Weather View 32 v70,2013-10-30 02:09:00,
2013-10-29 22:19:00,63.2,60.2,30.25,NW,323,0.0,2.0,90,0.00,,,0.00,Weather View 32 v70,2013-10-30 02:19:00,
2013-10-29 22:29:00,63.2,60.5,30.25,NW,318,0.0,2.0,91,0.00,,,0.00,Weather View 32 v70,2013-10-30 02:29:00,
2013-10-29 22:36:00,63.2,60.5,30.25,NW,318,0.0,2.0,91,0.00,,,0.00,Weather View 32 v70,2013-10-30 02:36:00,
2013-10-29 22:39:00,63.0,60.3,30.25,NW,318,0.0,2.0,91,0.00,,,0.00,Weather View 32 v70,2013-10-30 02:39:00,
2013-10-29 22:49:00,62.8,60.1,30.25,NW,318,0.0,2.0,91,0.00,,,0.00,Weather View 32 v70,2013-10-30 02:49:00,
2013-10-29 22:59:00,62.6,59.9,30.26,NW,318,0.0,2.0,91,0.00,,,0.00,Weather View 32 v70,2013-10-30 02:59:00,
2013-10-29 23:09:00,62.3,59.6,30.25,NW,318,1.0,2.0,91,0.00,,,0.00,Weather View 32 v70,2013-10-30 03:09:00,
2013-10-29 23:19:00,62.1,59.7,30.25,NW,318,0.0,2.0,92,0.00,,,0.00,Weather View 32 v70,2013-10-30 03:19:00,
2013-10-29 23:29:00,61.8,59.4,30.25,NW,318,0.0,2.0,92,0.00,,,0.00,Weather View 32 v70,2013-10-30 03:29:00,
2013-10-29 23:37:00,61.8,59.4,30.25,NW,318,0.0,2.0,92,0.00,,,0.00,Weather View 32 v70,2013-10-30 03:37:00,
2013-10-29 23:39:00,61.8,59.7,30.25,NW,318,0.0,2.0,93,0.00,,,0.00,Weather View 32 v70,2013-10-30 03:39:00,
2013-10-29 23:49:00,61.7,59.6,30.25,NW,318,0.0,2.0,93,0.00,,,0.00,Weather View 32 v70,2013-10-30 03:49:00,
2013-10-29 23:59:00,61.5,59.1,30.25,NW,310,2.0,2.0,92,0.00,,,0.00,Weather View 32 v70,2013-10-30 03:59:00,